This demonstration page uses our WeatherBlox Daily Observations layout. Learn more.

Left ArrowRight Arrow

Hourly Observations for June 28, 2018

Temp ( °F °C ) Dew Point ( °F °C ) Humidity (%) Winds ( mph kmh ) Pressure ( in mb ) Visibility ( mi km ) Precip ( " mm )
12:54 am 00:54 Clear 80 26.7 70 21.1 71 71 E 9 15 29.81 1010 10 16 0.00 0.00
1:54 am 01:54 Partly Cloudy 80 26.7 70 21.1 71 71 E 5 7 29.80 1009 10 16 0.00 0.00
2:54 am 02:54 Clear 79 26.1 70 21.1 74 74 E 8 13 29.80 1009 10 16 0.00 0.00
3:54 am 03:54 Clear 76 24.4 70 21.1 82 82 ENE 5 7 29.78 1009 10 16 0.00 0.00
4:54 am 04:54 Clear 76 24.4 70 21.1 82 82 ENE 3 6 29.78 1009 10 16 0.00 0.00
5:54 am 05:54 Clear 75 23.9 70 21.1 84 84 E 5 7 29.78 1008 10 16 0.00 0.00
6:54 am 06:54 Sunny 76 24.4 71 21.7 85 85 ESE 6 9 29.77 1008 10 16 0.00 0.00
7:54 am 07:54 Sunny 78 25.6 72 22.2 82 82 ESE 6 9 29.77 1008 10 16 0.00 0.00
8:54 am 08:54 Sunny 79 26.1 74 23.3 85 85 E 3 6 29.78 1008 10 16 0.00 0.00
9:25 am 09:25 Cloudy 80 26.7 74 23.3 82 82 NNW 24 39 29.83 1010 9 14 0.00 0.00
9:54 am 09:54 Cloudy 77 25 72 22.2 85 85 NNE 8 13 29.80 1009 10 16 0.00 0.00
10:54 am 10:54 Cloudy 79 26.1 72 22.2 79 79 NE 17 28 29.82 1010 10 16 0.00 0.00
11:27 am 11:27 Cloudy 79 26.1 71 21.7 77 77 ENE 18 30 29.83 1010 10 16 0.00 0.00
11:54 am 11:54 Cloudy 83 28.3 69 20.6 63 63 E 14 22 29.81 1010 10 16 0.00 0.00
12:18 pm 12:18 Partly Cloudy 84 28.9 71 21.7 65 65 E 15 24 29.74 1007 10 16 0.00 0.00
12:54 pm 12:54 Sunny 88 31.1 69 20.6 54 54 ESE 14 22 29.79 1009 10 16 0.00 0.00
1:54 pm 13:54 Sunny 89 31.7 73 22.8 59 59 SSE 14 22 29.79 1009 10 16 0.00 0.00
2:54 pm 14:54 Sunny 91 32.8 75 23.9 59 59 SSE 14 22 29.76 1008 10 16 0.00 0.00
3:54 pm 15:54 Sunny 93 33.9 76 24.4 58 58 SSE 21 33 29.75 1007 10 16 0.00 0.00
4:54 pm 16:54 Sunny 92 33.3 76 24.4 60 60 SSE 14 22 29.72 1007 10 16 0.00 0.00
5:54 pm 17:54 Sunny 91 32.8 76 24.4 61 61 ESE 20 31 29.71 1006 10 16 0.00 0.00
6:54 pm 18:54 Sunny 90 32.2 77 25 66 66 SE 15 24 29.69 1005 10 16 0.00 0.00
7:54 pm 19:54 Sunny 87 30.6 76 24.4 70 70 SE 15 24 29.67 1005 10 16 0.00 0.00
8:54 pm 20:54 Sunny 86 30 76 24.4 72 72 SSE 14 22 29.67 1005 10 16 0.00 0.00
9:54 pm 21:54 Clear 84 28.9 76 24.4 77 77 SSE 12 19 29.68 1005 10 16 0.00 0.00
10:54 pm 22:54 Clear 84 28.9 75 23.9 74 74 SSE 15 24 29.70 1006 10 16 0.00 0.00
11:54 pm 23:54 Clear 83 28.3 73 22.8 72 72 S 16 26 29.70 1006 10 16 0.00 0.00

Powered by AerisWeather